Location: Melbourne
(37.8666°S, 145.1333°E)
Time: 02:35:38
(UTC+10:00)

Daily predictions for brighter satellites

Satellite Brightness Start Highest point End
(mag) Time Altitude Azimuth Time Altitude Azimuth Time Altitude Azimuth
CZ-3 R/B 4.3 04:03:01 49° WNW 04:07:35 52° NNW 04:19:05 10° NE
Cosmos 1943 Rocket 3.9 04:15:07 27° SE 04:15:57 28° ESE 04:20:41 10° ENE
CZ-4C R/B 4.5 04:27:14 19° S 04:27:14 19° S 04:29:17 10° SSE
USA 215 3.6 04:32:23 10° NNE 04:37:31 51° N 04:37:31 51° N
Feng Yun 1-1 Rocket 4.4 04:36:05 10° NNE 04:40:52 66° ENE 04:40:52 66° ENE
Cosmos 1295 Rocket 4.5 04:43:16 10° N 04:49:28 81° E 04:55:51 10° S
Cosmos 2369 Rocket 2.1 04:57:43 69° S 04:58:28 85° ESE 05:04:11 10° NNE
Cosmos 1943 3.4 04:59:38 57° S 04:59:38 57° S 05:04:15 10° SSE
Nadezhda 3 Rocket 4.1 05:05:48 53° NW 05:05:48 53° NW 05:10:54 10° N
Delta 2 Rocket 4.0 05:06:40 66° NW 05:07:16 72° N 05:13:04 10° E
Meteor 2-10 Rocket 3.4 05:08:00 10° N 05:13:07 88° W 05:18:30 10° S
Cosmos 1850 Rocket 3.9 05:16:56 57° SW 05:17:53 71° WNW 05:23:06 10° N
SeaSat 1 4.2 05:21:31 10° S 05:23:08 18° S 05:23:08 18° S
MSX 4.1 05:20:34 10° N 05:26:04 45° W 05:26:41 43° W
CZ-2C R/B 3.2 05:21:47 10° NNW 05:25:12 35° NW 05:25:12 35° NW
Cosmos 2341 Rocket 4.2 05:22:54 10° NNW 05:29:01 48° W 05:35:15 10° S
Cosmos 921 Rocket 4.4 05:31:50 25° SSW 05:31:50 25° SSW 05:34:02 10° S
Meteor 1-28 Rocket 3.2 05:27:51 10° SSE 05:31:42 83° E 05:35:31 10° N
CZ-4 R/B 3.5 05:29:20 10° NE 05:32:35 26° ESE 05:35:55 10° SSE
Okean-O 3.5 05:35:03 10° NNW 05:38:13 32° NW 05:38:13 32° NW
BREEZE-M DEB (TANK) 4.3 05:40:06 11° S 05:40:06 11° S 05:40:37 10° SSE
Cosmos 2098 Rocket 4.3 05:33:07 10° NNW 05:40:39 71° W 05:47:44 10° S
Cosmos 1741 Rocket 4.4 05:42:35 33° WSW 05:44:04 41° WNW 05:49:02 10° N
SMAP 3.3 05:40:18 10° NNE 05:44:57 71° ESE 05:49:41 10° S
Cosmos 1862 3.3 05:46:21 14° SSW 05:49:49 67° W 05:53:53 10° N
SL-8 Rocket 4.2 05:45:00 10° NNW 05:51:03 49° W 05:57:13 10° S
AQUARIUS 4.2 05:49:23 10° NNE 05:53:54 85° ESE 05:58:29 10° SSW
Cosmos 1727 Rocket 4.0 05:49:53 10° S 05:56:18 88° W 06:02:33 10° N
Cosmos 1339 Rocket 4.4 05:50:45 10° S 05:56:59 76° W 06:03:04 10° N
Cosmos 1943 Rocket 2.6 05:56:43 22° SW 05:59:45 38° WNW 06:04:50 10° N
Cosmos 2366 rocket 4.0 05:53:51 10° NNW 05:59:52 55° W 06:05:59 10° S
FENGYUN 3A 4.5 05:57:08 10° NNE 06:02:24 53° ESE 06:07:43 10° S
Cosmos 1933 3.3 06:01:09 10° NNW 06:05:10 63° W 06:09:14 10° S
Cosmos 1110 Rocket 4.4 06:01:05 10° NW 06:05:54 38° WSW 06:10:49 10° S
Cosmos 1484 Rocket 3.8 06:10:49 10° NNW 06:14:18 27° W 06:17:07 14° SW
YAOGAN 1 3.1 06:11:47 10° NNE 06:16:05 62° ESE 06:20:26 10° S
ARGOS Delta rocket 4.1 06:14:39 10° SSE 06:19:10 69° E 06:23:47 10° N
Lacrosse 4 Rocket 3.4 06:15:58 10° S 06:19:21 24° SE 06:22:42 10° ENE
Ariane Rocket 3.0 06:14:18 10° NNE 06:19:25 87° WNW 06:24:36 10° SSW
GPS 2-04 Rocket1 3.4 06:16:18 10° WNW 06:19:42 41° NNE 06:23:00 10° E
Cosmos 1862 Rocket 4.1 06:15:31 10° N 06:19:58 67° E 06:24:31 10° SSE
Cosmos 1633 3.4 06:18:34 10° S 06:22:13 54° E 06:25:47 10° NNE
CSL-04 Rocket 3.7 06:17:24 10° N 06:22:37 62° WNW 06:27:56 10° SSW
MOS 1-B Rocket 4.1 06:17:19 10° N 06:23:02 50° W 06:28:33 10° SSW
METEOR-M 4.1 06:17:55 10° N 06:23:14 66° WNW 06:28:38 10° SSW
PSLV R/B 2.9 06:21:51 19° WSW 06:23:51 85° NNW 06:26:53 10° ENE
Cosmos 389 Rocket 4.4 06:20:50 10° SSE 06:24:02 31° ESE 06:27:11 10° NE
Cosmos 1782 4.4 06:21:06 10° NNE 06:24:50 39° E 06:28:38 10° SSE
Cosmos 1486 Rocket 4.0 06:26:47 10° SSW 06:32:05 83° WNW 06:37:17 10° NNE
Cosmos 2242 Rocket 3.6 06:30:08 10° NNW 06:34:40 75° W 06:39:13 10° S
USA 1613.906:37:34WNW06:37:34WNW06:33:23SW
Cosmos 1733 Rocket 3.1 06:30:54 10° S 06:35:28 85° W 06:39:56 10° N
CSL-04 Debris 4.5 06:32:10 10° N 06:37:28 49° W 06:42:48 10° SSW
ALOS 2.3 06:35:36 10° N 06:40:14 61° W 06:44:57 10° SSW
Cosmos 2369 Rocket 4.0 06:40:03 10° W 06:41:38 11° W 06:43:12 10° WNW
Cosmos 1607 3.9 06:36:15 10° NNW 06:42:23 87° WSW 06:48:31 10° SSE
Meteor 1-4 Rocket 3.0 06:42:53 10° SSW 06:46:23 40° W 06:49:46 10° NNW
COSMO-SKYMED 1 2.7 06:43:53 10° S 06:48:12 55° WSW 06:52:28 10° NNW
Cosmos 1656 Rocket 4.3 06:43:29 10° SW 06:48:32 37° WNW 06:53:37 10° N
COSMOS 2406 3.2 06:42:57 10° NNW 06:48:40 68° WSW 06:54:25 10° SSE
Meteor 1-14 Rocket 4.3 06:44:34 10° SSW 06:50:27 77° W 06:56:06 10° N
Cosmos 1503 Rocket 4.3 06:46:09 10° SSW 06:51:37 78° ESE 06:56:58 10° NNE
Cosmos 1867 3.8 06:47:10 10° SSW 06:52:36 78° ESE 06:57:59 10° NE
